ARG1849 SAVC-SABE

Flight info

Callsign ARG1849
Flight time 1h 54m
Altitude FL370
Route GATU1C GATUD UP664 TRE UT693 BCA UW22 VALOS
Aircraft B738/M-VGDW/C

Departure

Time 2026-05-05 21:28
Airport General Enrique Mosconi International Airport (SAVC)

Arrival

Time 2026-05-05 23:22
Airport Aeroparque Jorge Newbery (SABE)
Time Latitude Longitude Altitude Speed Heading
2026-05-05 21:01 -45.78948 -67.46884 195 ft 0 kts 226°
2026-05-05 21:19 -45.78947 -67.46882 195 ft 2 kts 226°
2026-05-05 21:19 -45.78936 -67.46866 214 ft 2 kts 226°
2026-05-05 21:20 -45.78924 -67.46849 211 ft 2 kts 226°
2026-05-05 21:20 -45.78914 -67.46832 210 ft 2 kts 242°
2026-05-05 21:20 -45.78910 -67.46823 210 ft 0 kts 257°
2026-05-05 21:23 -45.78911 -67.46831 195 ft 2 kts 264°
2026-05-05 21:23 -45.78913 -67.46872 200 ft 6 kts 265°
2026-05-05 21:23 -45.78916 -67.46954 195 ft 10 kts 269°
2026-05-05 21:24 -45.78918 -67.47070 195 ft 13 kts 268°
2026-05-05 21:24 -45.78903 -67.47187 199 ft 13 kts 316°
2026-05-05 21:24 -45.78830 -67.47255 195 ft 12 kts 303°
2026-05-05 21:24 -45.78833 -67.47383 196 ft 15 kts 259°
2026-05-05 21:25 -45.78855 -67.47540 204 ft 17 kts 260°
2026-05-05 21:25 -45.78877 -67.47723 201 ft 20 kts 260°
2026-05-05 21:25 -45.78904 -67.47924 200 ft 19 kts 257°
2026-05-05 21:25 -45.78927 -67.48096 206 ft 13 kts 260°
2026-05-05 21:26 -45.78888 -67.48205 195 ft 12 kts 327°
2026-05-05 21:26 -45.78882 -67.48210 198 ft 0 kts 332°
2026-05-05 21:26 -45.78860 -67.48222 200 ft 9 kts 342°
2026-05-05 21:27 -45.78776 -67.48230 204 ft 14 kts 17°
2026-05-05 21:27 -45.78723 -67.48079 204 ft 31 kts 78°
2026-05-05 21:27 -45.78627 -67.47366 196 ft 114 kts 79°
2026-05-05 21:27 -45.78424 -67.45949 340 ft 167 kts 76°
2026-05-05 21:28 -45.78185 -67.44238 1098 ft 185 kts 78°
2026-05-05 21:28 -45.77963 -67.42362 2009 ft 198 kts 81°
2026-05-05 21:28 -45.77700 -67.40301 2375 ft 224 kts 80°
2026-05-05 21:28 -45.77392 -67.37989 2584 ft 251 kts 79°
2026-05-05 21:29 -45.76719 -67.35611 3132 ft 265 kts 50°
2026-05-05 21:29 -45.75479 -67.33673 4086 ft 266 kts 53°
2026-05-05 21:29 -45.74535 -67.31386 4976 ft 270 kts 60°
2026-05-05 21:29 -45.73622 -67.29014 5815 ft 275 kts 60°
2026-05-05 21:30 -45.72680 -67.26617 6640 ft 279 kts 59°
2026-05-05 21:30 -45.71711 -67.24197 7443 ft 283 kts 59°
2026-05-05 21:30 -45.70714 -67.21743 8255 ft 288 kts 59°
2026-05-05 21:30 -45.69698 -67.19264 9063 ft 292 kts 59°
2026-05-05 21:31 -45.68660 -67.16748 9874 ft 296 kts 60°
2026-05-05 21:31 -45.67597 -67.14175 10397 ft 311 kts 60°
2026-05-05 21:31 -45.66453 -67.11418 10584 ft 335 kts 59°
2026-05-05 21:31 -45.65238 -67.08495 11059 ft 348 kts 59°
2026-05-05 21:32 -45.63996 -67.05514 11780 ft 352 kts 59°
2026-05-05 21:32 -45.62739 -67.02501 12572 ft 355 kts 59°
2026-05-05 21:32 -45.61469 -66.99464 13323 ft 359 kts 59°
2026-05-05 21:32 -45.60191 -66.96410 14004 ft 364 kts 59°
2026-05-05 21:33 -45.58711 -66.93485 14548 ft 370 kts 43°
2026-05-05 21:33 -45.56633 -66.91324 15161 ft 372 kts 30°
2026-05-05 21:33 -45.54405 -66.89414 15780 ft 377 kts 27°
2026-05-05 21:33 -45.52121 -66.87515 16382 ft 383 kts 27°
2026-05-05 21:34 -45.49814 -66.85602 16987 ft 388 kts 26°
2026-05-05 21:34 -45.47477 -66.83651 17615 ft 393 kts 26°
2026-05-05 21:34 -45.45114 -66.81664 18217 ft 398 kts 26°
2026-05-05 21:34 -45.42730 -66.79648 18726 ft 402 kts 26°
2026-05-05 21:35 -45.40314 -66.77598 19262 ft 406 kts 25°
2026-05-05 21:35 -45.37880 -66.75531 19785 ft 410 kts 25°
2026-05-05 21:35 -45.35426 -66.73446 20299 ft 415 kts 25°
2026-05-05 21:35 -45.32938 -66.71335 20799 ft 419 kts 25°
2026-05-05 21:36 -45.30430 -66.69209 21299 ft 423 kts 24°
2026-05-05 21:36 -45.27898 -66.67064 21798 ft 427 kts 24°
2026-05-05 21:36 -45.25335 -66.64896 22263 ft 432 kts 24°
2026-05-05 21:36 -45.22748 -66.62710 22744 ft 436 kts 24°
2026-05-05 21:37 -45.20140 -66.60507 23231 ft 439 kts 23°
2026-05-05 21:37 -45.17507 -66.58287 23654 ft 443 kts 23°
2026-05-05 21:37 -45.14853 -66.56049 24084 ft 445 kts 23°
2026-05-05 21:37 -45.12194 -66.53808 24536 ft 447 kts 23°
2026-05-05 21:38 -45.09523 -66.51563 24984 ft 448 kts 22°
2026-05-05 21:38 -45.06830 -66.49334 25383 ft 450 kts 21°
2026-05-05 21:38 -45.04105 -66.47159 25785 ft 451 kts 21°
2026-05-05 21:38 -45.01359 -66.45007 26187 ft 453 kts 20°
2026-05-05 21:39 -44.98604 -66.42857 26580 ft 455 kts 20°
2026-05-05 21:39 -44.95837 -66.40697 26975 ft 457 kts 20°
2026-05-05 21:39 -44.93054 -66.38519 27365 ft 459 kts 20°
2026-05-05 21:39 -44.90263 -66.36331 27725 ft 461 kts 20°
2026-05-05 21:40 -44.87456 -66.34128 28072 ft 463 kts 20°
2026-05-05 21:40 -44.84643 -66.31919 28433 ft 465 kts 20°
2026-05-05 21:40 -44.81808 -66.29695 28784 ft 467 kts 20°
2026-05-05 21:40 -44.78970 -66.27471 29129 ft 469 kts 20°
2026-05-05 21:41 -44.76121 -66.25240 29473 ft 471 kts 20°
2026-05-05 21:41 -44.73253 -66.22998 29798 ft 473 kts 19°
2026-05-05 21:41 -44.70382 -66.20756 30087 ft 475 kts 19°
2026-05-05 21:41 -44.67499 -66.18508 30356 ft 476 kts 19°
2026-05-05 21:42 -44.64607 -66.16255 30626 ft 477 kts 18°
2026-05-05 21:42 -44.61705 -66.13996 30879 ft 478 kts 18°
2026-05-05 21:42 -44.58802 -66.11740 31148 ft 479 kts 17°
2026-05-05 21:42 -44.55892 -66.09478 31493 ft 478 kts 17°
2026-05-05 21:43 -44.53002 -66.07233 31880 ft 475 kts 16°
2026-05-05 21:43 -44.50124 -66.05003 32226 ft 474 kts 15°
2026-05-05 21:43 -44.47244 -66.02776 32530 ft 473 kts 15°
2026-05-05 21:43 -44.44370 -66.00556 32850 ft 473 kts 15°
2026-05-05 21:44 -44.41496 -65.98336 33178 ft 472 kts 14°
2026-05-05 21:44 -44.38637 -65.96131 33501 ft 470 kts 13°
2026-05-05 21:44 -44.35773 -65.93926 33821 ft 469 kts 13°
2026-05-05 21:44 -44.32929 -65.91734 34069 ft 469 kts 13°
2026-05-05 21:45 -44.30065 -65.89577 34223 ft 464 kts
2026-05-05 21:45 -44.27119 -65.88237 34339 ft 431 kts 353°
2026-05-05 21:45 -44.24224 -65.88005 34552 ft 411 kts 345°
2026-05-05 21:45 -44.21374 -65.88036 34704 ft 412 kts 345°
2026-05-05 21:46 -44.18504 -65.88080 34821 ft 415 kts 345°
2026-05-05 21:46 -44.15618 -65.88103 34993 ft 416 kts 346°
2026-05-05 21:46 -44.12723 -65.88101 35162 ft 418 kts 346°
2026-05-05 21:46 -44.09810 -65.88084 35300 ft 420 kts 346°
2026-05-05 21:47 -44.06890 -65.88060 35446 ft 422 kts 347°
2026-05-05 21:47 -44.03952 -65.88036 35609 ft 423 kts 347°
2026-05-05 21:47 -44.00998 -65.87907 35728 ft 436 kts 355°
2026-05-05 21:47 -43.97979 -65.86795 35829 ft 467 kts 12°
2026-05-05 21:48 -43.95063 -65.84631 36026 ft 479 kts 18°
2026-05-05 21:48 -43.92194 -65.82277 36217 ft 481 kts 20°
2026-05-05 21:48 -43.89337 -65.79883 36410 ft 481 kts 20°
2026-05-05 21:48 -43.86480 -65.77494 36575 ft 481 kts 20°
2026-05-05 21:49 -43.83605 -65.75118 36750 ft 481 kts 20°
2026-05-05 21:49 -43.80728 -65.72769 36914 ft 481 kts 20°
2026-05-05 21:49 -43.74940 -65.68104 36916 ft 483 kts 20°
2026-05-05 21:50 -43.69170 -65.63476 36913 ft 478 kts 19°
2026-05-05 21:50 -43.63445 -65.58896 36912 ft 475 kts 19°
2026-05-05 21:51 -43.57760 -65.54360 36912 ft 472 kts 19°
2026-05-05 21:51 -43.52093 -65.49849 36916 ft 471 kts 19°
2026-05-05 21:52 -43.43597 -65.43102 36944 ft 472 kts 19°
2026-05-05 21:53 -43.37909 -65.38597 36951 ft 474 kts 19°
2026-05-05 21:53 -43.32188 -65.34075 36950 ft 477 kts 19°
2026-05-05 21:54 -43.26439 -65.29537 36941 ft 479 kts 20°
2026-05-05 21:54 -43.20658 -65.24984 36940 ft 481 kts 20°
2026-05-05 21:55 -43.14822 -65.20570 36938 ft 480 kts 18°
2026-05-05 21:55 -43.08943 -65.16286 36933 ft 480 kts 18°
2026-05-05 21:56 -43.03065 -65.12000 36933 ft 480 kts 18°
2026-05-05 21:56 -42.97200 -65.07704 36930 ft 479 kts 18°
2026-05-05 21:57 -42.91353 -65.03420 36927 ft 477 kts 18°
2026-05-05 21:57 -42.85517 -64.99154 36925 ft 476 kts 18°
2026-05-05 21:58 -42.79703 -64.94914 36922 ft 474 kts 18°
2026-05-05 21:58 -42.73907 -64.90698 36941 ft 472 kts 18°
2026-05-05 21:59 -42.68128 -64.86503 36934 ft 471 kts 18°
2026-05-05 21:59 -42.62362 -64.82327 36926 ft 471 kts 18°
2026-05-05 22:00 -42.56592 -64.78156 36927 ft 470 kts 18°
2026-05-05 22:00 -42.50828 -64.73999 36937 ft 471 kts 18°
2026-05-05 22:01 -42.45048 -64.69838 36890 ft 473 kts 18°
2026-05-05 22:01 -42.39222 -64.65655 36946 ft 477 kts 18°
2026-05-05 22:02 -42.33328 -64.61500 36957 ft 479 kts 17°
2026-05-05 22:02 -42.27379 -64.57429 36946 ft 482 kts 17°
2026-05-05 22:03 -42.21399 -64.53346 36947 ft 483 kts 17°
2026-05-05 22:03 -42.15431 -64.49261 36945 ft 482 kts 17°
2026-05-05 22:04 -42.09471 -64.45180 36942 ft 480 kts 17°
2026-05-05 22:04 -42.03542 -64.41129 36943 ft 478 kts 17°
2026-05-05 22:05 -41.97643 -64.37109 36944 ft 475 kts 17°
2026-05-05 22:05 -41.91763 -64.33113 36946 ft 474 kts 17°
2026-05-05 22:06 -41.85902 -64.29137 36947 ft 472 kts 17°
2026-05-05 22:06 -41.80052 -64.25178 36949 ft 472 kts 17°
2026-05-05 22:07 -41.74200 -64.21226 36954 ft 473 kts 17°
2026-05-05 22:07 -41.68327 -64.17268 36955 ft 474 kts 17°
2026-05-05 22:08 -41.62440 -64.13308 36956 ft 475 kts 17°
2026-05-05 22:08 -41.56533 -64.09342 36955 ft 477 kts 17°
2026-05-05 22:09 -41.50609 -64.05372 36953 ft 478 kts 17°
2026-05-05 22:09 -41.44674 -64.01403 36960 ft 479 kts 17°
2026-05-05 22:10 -41.38720 -63.97429 36955 ft 480 kts 17°
2026-05-05 22:10 -41.32765 -63.93461 36953 ft 479 kts 17°
2026-05-05 22:11 -41.26816 -63.89507 36954 ft 479 kts 17°
2026-05-05 22:11 -41.20874 -63.85565 36951 ft 478 kts 16°
2026-05-05 22:12 -41.14949 -63.81643 36954 ft 477 kts 16°
2026-05-05 22:12 -41.09028 -63.77732 36958 ft 476 kts 16°
2026-05-05 22:13 -41.03122 -63.73838 36955 ft 475 kts 16°
2026-05-05 22:13 -40.97217 -63.69953 36954 ft 475 kts 16°
2026-05-05 22:14 -40.91314 -63.66076 36955 ft 475 kts 16°
2026-05-05 22:14 -40.85457 -63.61995 36954 ft 478 kts 19°
2026-05-05 22:15 -40.79647 -63.57736 36957 ft 479 kts 19°
2026-05-05 22:15 -40.73854 -63.53508 36958 ft 479 kts 19°
2026-05-05 22:16 -40.68017 -63.49297 36959 ft 480 kts 18°
2026-05-05 22:16 -40.62162 -63.45099 36964 ft 480 kts 18°
2026-05-05 22:17 -40.56294 -63.40903 36950 ft 482 kts 18°
2026-05-05 22:17 -40.50415 -63.36706 36964 ft 482 kts 18°
2026-05-05 22:18 -40.44528 -63.32510 36950 ft 483 kts 18°
2026-05-05 22:18 -40.38625 -63.28310 36954 ft 483 kts 18°
2026-05-05 22:19 -40.32723 -63.24120 36962 ft 483 kts 18°
2026-05-05 22:19 -40.26821 -63.19938 36958 ft 483 kts 18°
2026-05-05 22:20 -40.20924 -63.15768 36957 ft 482 kts 18°
2026-05-05 22:20 -40.15035 -63.11612 36956 ft 482 kts 18°
2026-05-05 22:21 -40.09147 -63.07465 36955 ft 481 kts 18°
2026-05-05 22:21 -40.03272 -63.03336 36958 ft 480 kts 18°
2026-05-05 22:22 -39.97402 -62.99219 36957 ft 480 kts 18°
2026-05-05 22:22 -39.91526 -62.95105 36962 ft 480 kts 18°
2026-05-05 22:23 -39.85651 -62.91000 36965 ft 481 kts 18°
2026-05-05 22:23 -39.79763 -62.86895 36966 ft 481 kts 18°
2026-05-05 22:24 -39.73870 -62.82794 36965 ft 482 kts 18°
2026-05-05 22:24 -39.67959 -62.78688 36934 ft 481 kts 17°
2026-05-05 22:25 -39.62153 -62.74640 36960 ft 469 kts 17°
2026-05-05 22:25 -39.56411 -62.70681 36965 ft 468 kts 17°
2026-05-05 22:26 -39.50670 -62.66721 36969 ft 468 kts 17°
2026-05-05 22:26 -39.44898 -62.62874 36969 ft 467 kts 15°
2026-05-05 22:27 -39.39103 -62.59123 36971 ft 467 kts 15°
2026-05-05 22:27 -39.33307 -62.55369 36969 ft 468 kts 15°
2026-05-05 22:28 -39.27491 -62.51589 36967 ft 469 kts 15°
2026-05-05 22:28 -39.21671 -62.47806 36969 ft 470 kts 15°
2026-05-05 22:29 -39.15835 -62.44019 36977 ft 471 kts 15°
2026-05-05 22:29 -39.09986 -62.40232 36982 ft 472 kts 15°
2026-05-05 22:30 -39.04127 -62.36445 36976 ft 472 kts 15°
2026-05-05 22:30 -38.98258 -62.32658 36967 ft 473 kts 15°
2026-05-05 22:31 -38.92391 -62.28880 36969 ft 473 kts 15°
2026-05-05 22:31 -38.86522 -62.25107 36967 ft 473 kts 15°
2026-05-05 22:32 -38.80657 -62.21343 36963 ft 472 kts 15°
2026-05-05 22:32 -38.74796 -62.17589 36964 ft 471 kts 15°
2026-05-05 22:33 -38.69081 -62.13347 36973 ft 483 kts 24°
2026-05-05 22:33 -38.63619 -62.08337 36954 ft 485 kts 26°
2026-05-05 22:34 -38.58179 -62.03294 36966 ft 483 kts 25°
2026-05-05 22:34 -38.52735 -61.98324 36963 ft 482 kts 25°
2026-05-05 22:35 -38.47276 -61.93392 36970 ft 481 kts 25°
2026-05-05 22:35 -38.41793 -61.88455 36966 ft 488 kts 26°
2026-05-05 22:36 -38.36219 -61.83455 36984 ft 495 kts 26°
2026-05-05 22:36 -38.30581 -61.78389 36980 ft 498 kts 26°
2026-05-05 22:37 -38.24915 -61.73304 36978 ft 500 kts 26°
2026-05-05 22:37 -38.19235 -61.68217 36974 ft 500 kts 26°
2026-05-05 22:38 -38.13558 -61.63146 36974 ft 499 kts 26°
2026-05-05 22:38 -38.07899 -61.58100 36967 ft 497 kts 26°
2026-05-05 22:39 -38.02266 -61.53088 36970 ft 495 kts 26°
2026-05-05 22:39 -37.96653 -61.48105 36968 ft 492 kts 26°
2026-05-05 22:40 -37.91064 -61.43154 36969 ft 491 kts 26°
2026-05-05 22:40 -37.85482 -61.38220 36969 ft 489 kts 26°
2026-05-05 22:41 -37.79914 -61.33306 36966 ft 489 kts 26°
2026-05-05 22:41 -37.74347 -61.28402 36973 ft 489 kts 26°
2026-05-05 22:42 -37.68775 -61.23503 36967 ft 490 kts 26°
2026-05-05 22:42 -37.63191 -61.18602 36975 ft 491 kts 26°
2026-05-05 22:43 -37.57586 -61.13692 36963 ft 493 kts 26°
2026-05-05 22:43 -37.51984 -61.08792 36963 ft 494 kts 26°
2026-05-05 22:44 -37.46364 -61.03885 36966 ft 495 kts 26°
2026-05-05 22:44 -37.40764 -60.99006 36967 ft 496 kts 26°
2026-05-05 22:45 -37.35091 -60.94071 36967 ft 497 kts 26°
2026-05-05 22:45 -37.29417 -60.89145 36970 ft 496 kts 26°
2026-05-05 22:46 -37.23744 -60.84228 36965 ft 496 kts 26°
2026-05-05 22:46 -37.18077 -60.79327 36970 ft 496 kts 26°
2026-05-05 22:47 -37.12411 -60.74435 36969 ft 495 kts 26°
2026-05-05 22:47 -37.06754 -60.69561 36972 ft 494 kts 26°
2026-05-05 22:48 -37.01106 -60.64703 36972 ft 494 kts 26°
2026-05-05 22:48 -36.95457 -60.59853 36966 ft 493 kts 26°
2026-05-05 22:49 -36.89821 -60.55023 36975 ft 493 kts 26°
2026-05-05 22:49 -36.84178 -60.50196 36974 ft 492 kts 26°
2026-05-05 22:50 -36.78539 -60.45380 36976 ft 492 kts 26°
2026-05-05 22:50 -36.72902 -60.40574 36978 ft 492 kts 26°
2026-05-05 22:51 -36.67249 -60.35787 36972 ft 492 kts 26°
2026-05-05 22:51 -36.61593 -60.31020 36971 ft 492 kts 26°
2026-05-05 22:52 -36.55938 -60.26253 36974 ft 492 kts 26°
2026-05-05 22:52 -36.50276 -60.21489 36968 ft 492 kts 26°
2026-05-05 22:53 -36.44610 -60.16736 36969 ft 492 kts 26°
2026-05-05 22:53 -36.38947 -60.11992 36969 ft 492 kts 26°
2026-05-05 22:54 -36.33275 -60.07247 36969 ft 493 kts 26°
2026-05-05 22:54 -36.27625 -60.02528 36811 ft 495 kts 26°
2026-05-05 22:54 -36.24728 -60.00116 36270 ft 498 kts 26°
2026-05-05 22:55 -36.21869 -59.97732 35725 ft 496 kts 27°
2026-05-05 22:55 -36.19015 -59.95354 35103 ft 496 kts 27°
2026-05-05 22:55 -36.16159 -59.92977 34609 ft 494 kts 27°
2026-05-05 22:55 -36.13326 -59.90618 34176 ft 490 kts 27°
2026-05-05 22:56 -36.10515 -59.88281 33709 ft 486 kts 27°
2026-05-05 22:56 -36.07721 -59.85960 33226 ft 483 kts 27°
2026-05-05 22:56 -36.04953 -59.83665 32770 ft 478 kts 27°
2026-05-05 22:56 -36.02208 -59.81391 32329 ft 474 kts 27°
2026-05-05 22:57 -35.99480 -59.79133 31901 ft 470 kts 27°
2026-05-05 22:57 -35.96781 -59.76902 31478 ft 467 kts 27°
2026-05-05 22:57 -35.94096 -59.74685 31059 ft 463 kts 27°
2026-05-05 22:57 -35.91460 -59.72510 30647 ft 460 kts 27°
2026-05-05 22:58 -35.88795 -59.70312 30229 ft 457 kts 27°
2026-05-05 22:58 -35.86162 -59.68143 29776 ft 454 kts 27°
2026-05-05 22:58 -35.83555 -59.65997 29306 ft 450 kts 27°
2026-05-05 22:58 -35.80963 -59.63864 28845 ft 447 kts 27°
2026-05-05 22:59 -35.78408 -59.61763 28408 ft 443 kts 27°
2026-05-05 22:59 -35.75849 -59.59660 27981 ft 439 kts 27°
2026-05-05 22:59 -35.73320 -59.57585 27551 ft 436 kts 27°
2026-05-05 22:59 -35.70813 -59.55528 27126 ft 433 kts 27°
2026-05-05 23:00 -35.65847 -59.51461 26292 ft 427 kts 27°
2026-05-05 23:00 -35.63384 -59.49446 25875 ft 425 kts 27°
2026-05-05 23:00 -35.60936 -59.47445 25463 ft 422 kts 27°
2026-05-05 23:01 -35.58502 -59.45457 25060 ft 419 kts 27°
2026-05-05 23:01 -35.56084 -59.43483 24597 ft 419 kts 27°
2026-05-05 23:01 -35.53667 -59.41511 24195 ft 417 kts 27°
2026-05-05 23:01 -35.51256 -59.39545 23774 ft 416 kts 27°
2026-05-05 23:02 -35.48854 -59.37587 23321 ft 415 kts 27°
2026-05-05 23:02 -35.46462 -59.35640 22867 ft 412 kts 27°
2026-05-05 23:02 -35.44075 -59.33737 22390 ft 409 kts 25°
2026-05-05 23:02 -35.41660 -59.31920 21957 ft 406 kts 25°
2026-05-05 23:03 -35.39254 -59.30148 21550 ft 403 kts 24°
2026-05-05 23:03 -35.36858 -59.28388 21151 ft 400 kts 25°
2026-05-05 23:03 -35.34489 -59.26639 20757 ft 398 kts 25°
2026-05-05 23:03 -35.32130 -59.24891 20368 ft 395 kts 25°
2026-05-05 23:04 -35.29798 -59.23157 19980 ft 393 kts 25°
2026-05-05 23:04 -35.27477 -59.21429 19599 ft 391 kts 25°
2026-05-05 23:04 -35.25161 -59.19706 19223 ft 389 kts 25°
2026-05-05 23:04 -35.22859 -59.17994 18812 ft 388 kts 25°
2026-05-05 23:05 -35.20562 -59.16288 18418 ft 386 kts 26°
2026-05-05 23:05 -35.18248 -59.14671 17990 ft 383 kts 22°
2026-05-05 23:05 -35.15892 -59.13194 17571 ft 380 kts 21°
2026-05-05 23:05 -35.13535 -59.11770 17179 ft 377 kts 20°
2026-05-05 23:06 -35.11198 -59.10362 16783 ft 374 kts 21°
2026-05-05 23:06 -35.08872 -59.08949 16406 ft 372 kts 21°
2026-05-05 23:06 -35.06574 -59.07542 16022 ft 370 kts 21°
2026-05-05 23:06 -35.04283 -59.06132 15641 ft 368 kts 21°
2026-05-05 23:07 -35.02008 -59.04727 15263 ft 366 kts 22°
2026-05-05 23:07 -34.99744 -59.03329 14872 ft 365 kts 22°
2026-05-05 23:07 -34.97486 -59.01934 14497 ft 364 kts 22°
2026-05-05 23:07 -34.95235 -59.00545 14102 ft 363 kts 22°
2026-05-05 23:08 -34.92992 -58.99161 13708 ft 362 kts 22°
2026-05-05 23:08 -34.90754 -58.97782 13305 ft 360 kts 22°
2026-05-05 23:08 -34.88529 -58.96495 13175 ft 347 kts 20°
2026-05-05 23:08 -34.86361 -58.95321 12747 ft 339 kts 19°
2026-05-05 23:09 -34.84211 -58.94179 12151 ft 338 kts 19°
2026-05-05 23:09 -34.82070 -58.93033 11605 ft 335 kts 20°
2026-05-05 23:09 -34.79958 -58.91890 11097 ft 331 kts 20°
2026-05-05 23:09 -34.77868 -58.90754 10579 ft 328 kts 21°
2026-05-05 23:10 -34.75827 -58.89643 10284 ft 320 kts 21°
2026-05-05 23:10 -34.73843 -58.88563 10240 ft 308 kts 21°
2026-05-05 23:10 -34.71918 -58.87518 10138 ft 300 kts 21°
2026-05-05 23:10 -34.70044 -58.86502 10030 ft 291 kts 21°
2026-05-05 23:11 -34.68211 -58.85509 9827 ft 287 kts 21°
2026-05-05 23:11 -34.66397 -58.84528 9534 ft 285 kts 21°
2026-05-05 23:11 -34.64594 -58.83553 9298 ft 283 kts 21°
2026-05-05 23:11 -34.62801 -58.82583 9019 ft 282 kts 21°
2026-05-05 23:12 -34.61018 -58.81619 8757 ft 280 kts 21°
2026-05-05 23:12 -34.59250 -58.80664 8461 ft 279 kts 21°
2026-05-05 23:12 -34.57485 -58.79711 8195 ft 277 kts 21°
2026-05-05 23:12 -34.55700 -58.78918 7918 ft 272 kts
2026-05-05 23:13 -34.53841 -58.78665 7664 ft 268 kts
2026-05-05 23:13 -34.51987 -58.78480 7399 ft 267 kts
2026-05-05 23:13 -34.50147 -58.78291 7153 ft 266 kts
2026-05-05 23:13 -34.48322 -58.78093 6888 ft 265 kts
2026-05-05 23:14 -34.46488 -58.77884 6610 ft 264 kts
2026-05-05 23:14 -34.44662 -58.77671 6336 ft 263 kts
2026-05-05 23:14 -34.42845 -58.77457 6039 ft 263 kts
2026-05-05 23:14 -34.41034 -58.77242 5755 ft 261 kts
2026-05-05 23:15 -34.39241 -58.76910 5460 ft 264 kts 17°
2026-05-05 23:15 -34.37708 -58.75700 5197 ft 269 kts 46°
2026-05-05 23:15 -34.36830 -58.73718 4921 ft 272 kts 75°
2026-05-05 23:15 -34.36860 -58.71453 4688 ft 273 kts 107°
2026-05-05 23:16 -34.37792 -58.69482 4463 ft 271 kts 132°
2026-05-05 23:16 -34.39099 -58.67849 4235 ft 271 kts 136°
2026-05-05 23:16 -34.40425 -58.66249 3983 ft 269 kts 135°
2026-05-05 23:16 -34.41734 -58.64650 3752 ft 267 kts 135°
2026-05-05 23:17 -34.43025 -58.63056 3507 ft 264 kts 135°
2026-05-05 23:17 -34.44304 -58.61475 3337 ft 259 kts 134°
2026-05-05 23:17 -34.45502 -58.59951 3400 ft 243 kts 133°
2026-05-05 23:17 -34.46542 -58.58374 3212 ft 239 kts 123°
2026-05-05 23:18 -34.47422 -58.56736 3050 ft 228 kts 122°
2026-05-05 23:18 -34.48237 -58.55176 2924 ft 214 kts 121°
2026-05-05 23:18 -34.49024 -58.53724 2724 ft 199 kts 125°
2026-05-05 23:18 -34.49835 -58.52406 2392 ft 192 kts 124°
2026-05-05 23:19 -34.50609 -58.51108 2048 ft 186 kts 123°
2026-05-05 23:19 -34.51275 -58.49815 1743 ft 177 kts 120°
2026-05-05 23:19 -34.51940 -58.48645 1480 ft 161 kts 126°
2026-05-05 23:19 -34.52558 -58.47575 1209 ft 144 kts 119°
2026-05-05 23:20 -34.53096 -58.46635 955 ft 129 kts 123°
2026-05-05 23:20 -34.53578 -58.45753 660 ft 125 kts 120°
2026-05-05 23:20 -34.54078 -58.44885 435 ft 126 kts 124°
2026-05-05 23:20 -34.54558 -58.44014 324 ft 122 kts 123°
2026-05-05 23:21 -34.55033 -58.43177 150 ft 120 kts 122°
2026-05-05 23:21 -34.55499 -58.42337 34 ft 120 kts 123°
2026-05-05 23:21 -34.55950 -58.41531 23 ft 106 kts 124°
2026-05-05 23:21 -34.56277 -58.40945 26 ft 62 kts 126°
2026-05-05 23:22 -34.56392 -58.40735 27 ft 8 kts 117°
2026-05-05 23:22 -34.56392 -58.40674 28 ft 7 kts 59°
2026-05-05 23:22 -34.56347 -58.40679 27 ft 7 kts 326°
2026-05-05 23:22 -34.56308 -58.40716 27 ft 7 kts 319°
2026-05-05 23:23 -34.56272 -58.40754 24 ft 7 kts 318°
2026-05-05 23:23 -34.56237 -58.40792 27 ft 7 kts 318°
2026-05-05 23:23 -34.56200 -58.40834 24 ft 8 kts 312°
2026-05-05 23:23 -34.56164 -58.40905 27 ft 12 kts 300°
2026-05-05 23:24 -34.56112 -58.41001 25 ft 15 kts 306°
2026-05-05 23:24 -34.56041 -58.41114 26 ft 17 kts 307°
2026-05-05 23:24 -34.55969 -58.41231 25 ft 16 kts 307°
2026-05-05 23:24 -34.55898 -58.41296 26 ft 13 kts
2026-05-05 23:25 -34.55822 -58.41313 26 ft 12 kts 310°
2026-05-05 23:25 -34.55774 -58.41398 27 ft 9 kts 304°
2026-05-05 23:25 -34.55744 -58.41452 28 ft 2 kts 317°
2026-05-05 23:25 -34.55722 -58.41452 24 ft 4 kts 11°
2026-05-05 23:26 -34.55697 -58.41444 24 ft 0 kts 16°